Content
SEND FEEDBACK

Daily
Averages
Monthly
Summary
United States of America

HINGHAM, MASSACHUSETTS


Home > North America > United States > Massachusetts
Elevation: 3 feet     Latitude: 42 14N     Longitude: 070 55W

WEATHER
 
SELECT A DAY
Number of Records: 133,044;   Date Range: 10/15/98 - 7/29/14
 
SHARE

PRINT THIS DATA

[ ← Previous Day ]
WEATHER ALMANAC - APRIL 3, 2013
[ Next Day → ]
[ °C ]   °F
Weather ElementAverageHighLow
Temperature33.9 °F45 °F (2:54 pm) (3:00 pm)
Dewpoint9.9 °F15.1 °F (2:54 am) (7:00 pm)
Humidity37.3 %56 % (3:54 am)23 % (1:54 pm)
Barometer28.76 in30.16 in (10:54 pm) (7:00 pm)
Wind Speed18.9 mph25.3 mph (12:54 pm)
Wind Gust40.3 mph (1:54 am)
Weather ElementAverage
Wind DirectionW (268.3 °)

Weather ElementTotal
Precipitation---
Heating Degree Days42.5 (Base 65)
Averaged from 24 records on April 3, 2013
WEATHER CONDITIONS BREAKOUT
WIND DIRECTION BREAKOUT
WEATHER BY HOUR - APRIL 3, 2013
[ °C ]   °F
Local TimeTemperatureDewpointHumidityBarometerVisibilityWind DirectionWind SpeedGust SpeedPrecipitationEventsConditions
1:54 AM30.0 °F14.0 °F51 %29.95 inWest (270°)18.4 mph40.3 mph
2:54 AM30.0 °F15.1 °F54 %29.96 inWest (260°)13.8 mph26.5 mph
3:54 AM28.9 °F15.1 °F56 %29.95 inWest (270°)11.5 mph20.7 mph
4:54 AM28.9 °F14.0 °F54 %29.96 inWest (270°)16.1 mph25.3 mph
5:54 AM28.9 °F10.0 °F45 %29.97 inWest (280°)18.4 mph33.4 mph
6:54 AM28.0 °F10.0 °F47 %30.00 inWest (280°)20.7 mph28.8 mph
7:54 AM30.0 °F9.0 °F41 %30.01 inWest (270°)20.7 mph35.7 mph
8:54 AM30.9 °F10.0 °F42 %30.00 inWest (280°)24.2 mph33.4 mph
9:54 AM34.0 °F10.0 °F37 %29.99 inWest (270°)18.4 mph35.7 mph
10:54 AM37.9 °F9.0 °F30 %29.98 inWNW (290°)23.0 mph33.4 mph
11:54 AM39.9 °F7.0 °F26 %29.98 inWest (280°)21.9 mph40.3 mph
12:54 PM42.1 °F7.0 °F24 %29.96 inWNW (290°)25.3 mph35.7 mph
1:54 PM43.0 °F7.0 °F23 %29.96 inWest (280°)16.1 mph34.5 mph
2:54 PM45.0 °F9.0 °F23 %29.96 inWNW (300°)20.7 mph32.2 mph
3:00 PM0.0 °F0.0 °FNorth
3:54 PM44.1 °F9.0 °F24 %29.96 inWNW (300°)20.7 mph29.9 mph
4:54 PM43.0 °F8.1 °F24 %29.97 inWest (280°)19.6 mph35.7 mph
5:54 PM42.1 °F9.0 °F26 %29.99 inWest (280°)21.9 mph31.1 mph
6:54 PM39.0 °F9.0 °F29 %30.03 inWest (280°)16.1 mph29.9 mph
7:54 PM36.0 °F9.0 °F33 %30.06 inWest (280°)19.6 mph29.9 mph
8:54 PM35.1 °F10.9 °F37 %30.10 inWest (280°)19.6 mph35.7 mph
9:54 PM33.1 °F12.0 °F42 %30.13 inWest (280°)15.0 mph26.5 mph
10:54 PM32.0 °F12.0 °F44 %30.16 inWest (280°)17.3 mph29.9 mph
11:54 PM30.9 °F12.9 °F47 %30.16 inWNW (290°)16.1 mph25.3 mph
Hourly data recorded from KMQE, located miles away from Hingham, Massachusetts







STORIES FROM OUR PARTNERS